Regional Weather Roundup
Issued by NWS

Home | Current Version | Previous Version | Graphics & Text | Print | Product List | Glossary On
Versions: 1 2 3 4 5 6 7 8 9 10 11 12 13 14 15 16 17 18 19 20 21 22 23 24 25 26 27 28 29 30 31 32 33 34 35 36 37 38 39 40 41 42 43 44 45 46 47 48 49 50
000
ASUS43 KFSD 250902
RWRSD

WEATHER ROUNDUP FOR SOUTH DAKOTA
NATIONAL WEATHER SERVICE SIOUX FALLS SD
400 AM CDT THU MAY 25 2017

NOTE: "FAIR" INDICATES FEW OR NO CLOUDS BELOW 12,000 FEET WITH NO
SIGNIFICANT WEATHER AND/OR OBSTRUCTIONS TO VISIBILITY.


SDZ001>005-009-010-012>017-251000-
NORTHWEST AND NORTH CENTRAL SOUTH DAKOTA

CITY           SKY/WX    TMP DP  RH WIND       PRES   REMARKS
BUFFALO          N/A     46  43  89 NW10      29.36S
FAITH            N/A     50  44  80 N13       29.31R
MOBRIDGE       CLOUDY    53  44  71 SE18      29.36F
$$

SDZ012>016-024>037-041>051-057-063-072>074-251000-
SOUTHWEST AND SOUTH CENTRAL SOUTH DAKOTA

CITY           SKY/WX    TMP DP  RH WIND       PRES   REMARKS
RAPID CTY ARPT PTCLDY    54  44  69 N18       29.41R
PIERRE         CLOUDY    56  42  59 SE24G31   29.33F
CUSTER         CLEAR     50  37  61 N8        29.50R
ELLSWORTH AFB  PTCLDY    55  46  72 N14       29.42R
PHILIP         CLEAR     56  49  77 W14       29.33R
PINE RIDGE     CLEAR     60  51  72 W18G25    29.43R
WINNER         FAIR      57  44  62 S26G38    29.37F
$$

SDZ004>011-016>023-039-040-251000-
NORTHEAST SOUTH DAKOTA

CITY           SKY/WX    TMP DP  RH WIND       PRES   REMARKS
ABERDEEN       CLOUDY    52  42  69 SE17      29.51R
WATERTOWN      CLEAR     49  42  77 SE12G22   29.55F
BROOKINGS      CLEAR     47  43  86 SE14      29.59F
SISSETON         N/A     45  43  93 S9        29.58F
$$

SDZ017-020-022-023-036>040-048>070-251000-
SOUTHEAST SOUTH DAKOTA

CITY           SKY/WX    TMP DP  RH WIND       PRES   REMARKS
SIOUX FALLS    CLEAR     50  45  83 SE14      29.59F
HURON          CLOUDY    51  44  77 SE17G30   29.49F
CHAMBERLAIN    MOCLDY    54  46  76 SE17      29.43S
MITCHELL       PTCLDY    52  44  74 SE21      29.52F
YANKTON        CLEAR     51  43  74 SE9       29.58F
$$

ABBREVIATIONS USED IN REMARKS
   TC - TEMPERATURE IN CELSIUS
  WCI - WIND CHILL INDEX
   HX - HEAT INDEX
  VSB - VISIBILITY





USA.gov is the U.S. government's official web portal to all federal, state and local government web resources and services.